STARLINK-32860, 62856

Orbit data source: Space-Track

STARLINK-32860, 62856 is a payload satellite owned by SpaceX/Seattle (US) in LEO that was launched on Sat, 01 Feb 2025 UTC via an FALCON 9 launch vehicle from the Air Force Western Test Range (AFWTR). Payload-class satellites include a variety of spacecraft equipped with specific instruments for various scientific and technological missions. These include communications satellites like Starlink; space stations such as the ISS; scientific satellites like the Hubble; Earth observation satellites from companies like Planet Labs, Umbra, and HawkEye 360; GPS; miniature CubeSats for education and research; and military/defense satellites.

Loading next visibility...
Identifier
62856, 2025-022C
Orbit
LEO
Last TLE update
3 hours ago
Origin
Manufacturer
SpaceX/Seattle
Mission
Operational Commercial Communications
Bus & Motor
STARLINK V2M, Unknown motor
Mass
730 kg wet, ~700 kg dry
Launch date (UTC)
2025-02-01 (5 months ago)
Launch vehicle
FALCON 9
Launch site
Air Force Western Test Range (AFWTR)
Object type
Payload
Rocket body
Debris
Shape & HBR
Box + 2 Pan, 29 m
Radar Cross Section
33.884 m², Large (>1 m²)

Expand to show TLE details & history

TLE from 3 hours ago
0 STARLINK-32860
1 62856U 25022C   25182.25002315 -.01174357  00000-0 -37712-1 0  9995
2 62856  53.1594 217.8364 0001152  81.8825 119.6172 15.34807241 24275
Epoch: 2025-07-01T06:00Z
TLE epoch observation values (Epoch: 2025-07-01T06:00:02Z)
Latitude
-17.23677°
Longitude
41.64507°
Altitude
466.573 km
Speed
7.633 km/s
True Right ascension
03h 24m 48s
True Declination
-17° 08' 08"
Sunlit
Object was in daylight at epoch
Visualization orbit readout
Latitude
-17.35444°
Longitude
41.13453°
Altitude
467.602 km
Speed
7.633 km/s
Apparent Right ascension
05h 36m 32s
Apparent Declination
-34° 48' 42"
Sunlit
Object is in daylight
Visualization observer readout
Local Sidereal Time
20:45:52
Azimuth
97.624° ESE
Elevation
-52.476°
Doppler factor
1
Orbital elements
Apogee altitude
462.538 km
Perigee altitude
460.962 km
Semi-major axis
6,839.887 km
Eccentricity
0.00012
Inclination
53.1594°
RAAN
217.8364°
Arg. of periapsis
81.8825°
True anomaly
Unknown
Mean anomaly
119.6172°
Eccentric anomaly
Unknown
Mean motion
3.83681 °/min
Orbital period
93.83 mins
BSTAR
-0.037712
Loading maneuver chart data...
Loading SW <> Apogee altitude chart data...
Loading historical data...
Loading historical data...
Loading historical data...
Loading historical data...
Loading historical data...
Loading historical data...
Loading historical data...

STARLINK-32860 Visibility forecast

Observer location: undefined°, undefined°

Span
Click to sort rows by Start time (UTC) header in descending order
Start Az.
Max El. time (UTC)
Max El. Az.
Max El.
End time (UTC)
End Az.
5 mins2025-07-01 11:52:38.002Z320.48° NNW2025-07-01 11:54:38.002Z4.05° NNE39.816°2025-07-01 11:57:38.002Z115.648° SE
5 mins2025-07-02 04:46:38.002Z206.28° SW2025-07-02 04:48:38.002Z111.747° ESE39.893°2025-07-02 04:51:38.002Z57.545° ENE
4 mins2025-07-02 06:24:38.002Z295.922° NW2025-07-02 06:26:38.002Z341.272° N20.581°2025-07-02 06:28:38.002Z20.389° NNE
|